Regional Weather Roundup
Issued by NWS Charleston, SC

Current Version | Previous Version | Text Only | Print | Product List | Glossary Off
Versions: 1 2 3 4 5 6 7 8 9 10 11 12 13 14 15 16 17 18 19 20 21 22 23 24 25 26 27 28 29 30 31 32 33 34 35 36 37 38 39 40 41 42 43 44 45 46 47 48 49 50

000
ASUS42 KCHS 242212
RWRCHS

REGIONAL WEATHER ROUNDUP
NATIONAL WEATHER SERVICE CHARLESTON SC
600 PM EDT SAT JUN 24 2017

NOTE: "FAIR" INDICATES FEW OR NO CLOUDS BELOW 12,000 FEET WITH NO
SIGNIFICANT WEATHER AND/OR OBSTRUCTIONS TO VISIBILITY.

NOT ALL STATIONS ARE QUALITY CONTROLLED. USE DATA WITH CAUTION...
ESPECIALLY DEWPOINT OBSERVATIONS.

SCZ027-030-031-034>040-042>050-242300-
...SOUTHEAST SOUTH CAROLINA...

CITY           SKY/WX    TMP DP  RH WIND       PRES   REMARKS
N CHARLESTON   MOSUNNY   89  73  59 S15       29.98S HX  97
WATERFRONT PRK   N/A     86  77  74 S15       29.96S HX  97
JOHNS ISLAND   CLOUDY    88  77  70 S16       29.99S HX 100
PINOPOLIS        N/A     91  73  55 SW7G14    29.88F HX 100
MONCKS CORNER  FAIR      90  68  48 SW9G16    29.96S HX  93
SUMMERVILLE    FAIR      90  70  51 SW8       29.98R HX  95
BEAUFORT MCAS  MOSUNNY   91  79  67 S6        29.98S HX 107
BEAUFORT ARPT  FAIR      88  77  70 S7G16     29.98S HX 100
HILTON HEAD IS MOSUNNY   88  77  70 S13       30.00S HX 100
WALTERBORO     MOCLDY    90  70  51 SW9G17    29.98R HX  95
ALLENDALE      FAIR      79  75  89 CALM      29.99F

...SOUTHERN MIDLANDS AND PEE DEE...

CITY           SKY/WX    TMP DP  RH WIND       PRES   REMARKS
GEORGETOWN     FAIR      86  77  74 S14G21    29.97F HX  97
KINGSTREE      FAIR      79  73  83 CALM      29.95F
ORANGEBURG     CLOUDY    77  75  93 W10       30.00R THUNDER
BARNWELL       DRIZZLE   75  75 100 SW6       30.00S
AIKEN          LGT RAIN  73  73 100 SW6       30.03S
MANNING        TSTM      79  79 100 W14G21    29.99R
COLUMBIA       LGT RAIN  77  74  90 SW7       29.96F
SUMTER         LGT RAIN  78  73  83 SW10      29.95R
FLORENCE       CLOUDY    82  75  79 W10       29.94R
MYRTLE BEACH   MOSUNNY   86  81  84 S14G25    29.94F HX 102
N MYRTLE BEACH SUNNY     84  78  82 SW20G31   29.93F HX  95

$$

GAZ063-065-086>088-099>101-113>116-118-119-134>141-150-242300-
...SOUTHEAST GEORGIA...

CITY           SKY/WX    TMP DP  RH WIND       PRES   REMARKS
SAVANNAH ARPT  MOSUNNY   94  67  41 W10       29.99S HX  97
HUNTER AAF     MOSUNNY   94  71  46 W9        29.96F HX 100
FORT STEWART   MOSUNNY   93  69  44 SW10      29.97S HX  98
STATESBORO     CLOUDY    83  73  71 NW10G22   30.01R HX  90
SYLVANIA       CLOUDY    79  76  90 N7        30.02R
CLAXTON        FAIR      91  69  49 SW8       30.00S HX  95

...CSRA...CENTRAL AND FAR SOUTHEAST GEORGIA...

CITY           SKY/WX    TMP DP  RH WIND       PRES   REMARKS
THOMSON        CLOUDY    76  74  93 NW5       30.05S
AUGUSTA-BUSH   CLOUDY    78  75  90 SW9       29.99S
AUGUSTA-DANIEL CLOUDY    78  72  81 SW7       30.00S
SWAINSBORO     MOCLDY    73  73 100 S5        30.04F
VIDALIA        CLOUDY    82  73  74 N20       30.02S
EASTMAN        MOCLDY    81  68  65 N3        30.04S
HAZLEHURST       N/A     92  69  46 SW7       29.99F HX  97
ALMA           MOSUNNY   93  70  46 W6        30.00F HX  99
WAYCROSS       MOSUNNY   96  74  50 W12       30.00F HX 107
JESUP          FAIR      93  64  38 W6        30.00S HX  95
BAXLEY         FAIR      93  73  52 W9        30.00F HX 102
BRUNSWICK      MOSUNNY   95  73  49 SW9       30.01S HX 105
SAINT SIMONS   SUNNY     87  77  72 S7        30.00F HX  99

$$

SCZ027-028-034-036>038-045-046-048>050-GAZ119-141-242300-
...LAKE AND SUPPLEMENTAL COASTAL OBSERVATIONS...

STATION/POSITION TIME  TEMP    WIND        PRES    WAVE   SWELL
                       AIR SEA DIR/SP/G            HT/PER HT/PER/DIR
                 (UTC) (F)     (DEG/KT/KT) (MB)    (FT/S) (FT/S/D)
WINYAH BAY       2045   87     200/ 16     1014.0
LAKE MURRAY      2120   78     260/  6/ 10 1014.2
ACE BASIN NERRS  2045   88     180/  2     1015.0
FORT PULASKI     2142   87 84  210/ 10/ 14 1015.8F
SAPELO ISLAND    2100   89     160/  9     1016.0

$$

ANZ835-935-AMZ111-154-330-350-352-354-370-450-454-472-242300-
...C-MAN AND BUOY OBSERVATIONS...

STATION/POSITION TIME  TEMP    WIND        PRES    WAVE   SWELL
                       AIR SEA DIR/SP/G            HT/PER HT/PER/DIR
                 (UTC) (F)     (DEG/KT/KT) (MB)    (FT/S) (FT/S/D)
BUOY 41004       2150   81 81  200/ 17/ 21 1015.5F   4/ 6   2/150/ 8
BUOY 41008       2150   82 83  160/ 14/ 16 1015.8S   3/ 8   2/110/ 8
FOLLY BEACH CMAN 2100   83     190/ 16/ 19 1016.3F
CAPERS NEARSHORE 2108   86 84  210/ 17/ 23 1015.1F
FRIPP NEARSHORE  2108   83 84  200/ 16/ 21 1015.3F


STATION/POSITION TIME  TEMP    WIND        PRES    WAVE   SWELL
                       AIR SEA DIR/SP/G            HT/PER HT/PER/DIR
                 (UTC) (F)     (DEG/KT/KT) (MB)    (FT/S) (FT/S/D)
5E ST. MARYS GA  2130      81                N/A     3/ 9
FRYING PAN BUOY  2150   81 81  200/ 21/ 25 1014.4F   5/ 6   2/140/ 9
BUOY 41025       2150   81 80  230/ 19/ 25 1013.3F   7/ 7
CAPE LOOKOUT NC  2100   82     210/ 16/ 20 1013.5S
BUOY 41002       2150   81 81  200/ 14/ 17 1018.5F   4/ 6   2/100/ 8
BUOY 41010       2150   83 84  170/ 12/ 14 1018.5F   4/ 8   3/150/ 8
ST AUGUSTINE FL  2200   80 81  170/ 13/ 14 1016.8F


$$




USA.gov is the U.S. government's official web portal to all federal, state and local government web resources and services.